Temperature
15 15 15 15 15 15 15 15 15 15 15 15 15 15 15 15 14 14 15 15 15 15 15 15 15 15 15 15 15 15 15 15 15 15 15 15 15 15 15 15 15 15 15
15 15 15 15 15 14 15 15 15 14 14 14 14 14 14 14 14 14 14 15 15 15 15 15 15 14 14 14 15 15 15 15 15 15 15 15 15 15 15 15 15 15 15
15 15 15 15 14 14 15 14 14 14 14 14 14 14 14 14 14 14 14 14 14 14 14 14 14 14 14 14 14 14 14 14 14 14 14 14 14 14 14 14 14 14 14
15 15 14 15 14 14 14 14 14 14 14 14 14 14 14 14 14 14 14 14 14 14 14 14 14 14 14 14 14 14 14 14 14 14 14 14 14 14 14 14 14 14 14
15 14 14 14 14 14 14 14 14 14 14 14 14 14 14 14 14 14 14 14 14 14 14 14 14 14 14 14 14 14 14 14 14 14 14 14 14 14 14 14 14 14 14
14 14 14 14 14 14 14 14 14 14 14 14 14 14 14 14 14 14 14 14 14 14 14 14 13 13 14 14 14 13 13 13 14 14 13 13 13 14 14 14 14 14 14
14 14 14 14 14 14 14 14 14 14 14 14 14 14 14 14 14 14 14 14 14 13 13 13 13 13 13 13 13 13 13 13 13 13 13 13 13 13 13 13 14 14 14
14 14 14 14 14 14 14 14 14 14 14 14 14 14 15 14 14 14 14 14 14 13 13 13 13 13 13 13 13 13 13 13 13 13 13 13 13 13 13 13 13 13 13
14 14 14 14 14 14 14 14 13 13 14 14 14 14 15 15 14 14 13 13 13 13 13 13 13 13 13 13 13 13 13 13 13 13 13 13 13 13 13 13 13 13 13
14 14 14 14 14 14 14 13 13 13 13 13 13 14 14 14 14 14 13 13 13 13 13 13 13 13 13 12 13 13 13 13 13 13 13 13 12 12 13 13 13 13 13
14 14 14 14 14 14 13 13 13 13 13 13 13 13 13 13 14 14 14 13 13 13 13 13 13 13 12 12 12 12 13 13 12 12 12 12 12 12 12 12 12 12 12
14 14 13 13 13 13 13 13 13 13 13 13 13 13 13 13 13 14 14 13 13 13 13 13 13 12 12 12 12 12 12 12 12 12 12 12 12 12 12 12 12 12 12
13 13 13 13 13 13 13 13 13 13 13 13 13 13 13 13 13 13 13 13 13 13 12 12 12 12 12 12 12 12 12 12 12 12 12 12 12 12 12 12 12 12 12
13 13 13 13 13 13 13 13 13 13 13 13 13 13 13 13 13 13 13 13 13 13 12 12 12 12 12 12 12 12 12 12 12 12 12 12 12 12 12 11 11 11 11
13 13 13 13 13 13 13 13 13 13 13 13 13 12 12 12 12 12 12 12 13 13 13 12 12 12 12 12 12 12 12 12 12 12 12 12 11 11 11 11 11 11 11
13 13 13 13 13 13 13 12 12 12 12 12 12 12 12 12 12 12 12 12 12 12 12 12 12 12 12 11 12 11 11 12 12 12 11 11 11 11 11 11 11 11 11
13 13 13 13 12 12 12 12 12 12 12 12 12 12 12 12 12 12 12 12 12 12 12 12 12 11 11 11 11 11 11 11 11 11 11 11 11 11 11 11 11 11 11
13 13 13 12 12 12 12 12 12 12 12 12 12 12 12 12 12 12 11 11 11 11 11 11 11 11 11 11 11 11 11 11 11 11 11 11 11 11 11 11 11 11 11
13 12 12 12 12 12 12 12 12 12 12 12 12 12 11 11 11 11 11 11 11 11 11 11 11 11 11 11 11 11 11 11 11 11 11 11 11 11 11 11 11 11 11
12 12 12 12 12 12 11 11 11 11 11 11 11 11 11 11 11 11 11 11 11 11 11 11 11 10 11 11 11 10 10 10 10 11 11 11 11 11 11 11 11 11 11
12 12 12 12 12 11 11 11 11 11 11 11 11 11 11 11 11 11 11 11 11 10 10 10 10 10 10 10 10 10 10 10 10 10 10 10 10 10 11 11 11 11 11
11 11 11 11 11 11 11 11 11 11 10 10 10 10 10 10 10 11 11 11 10 10 10 10 10 10 10 10 10 10 10 10 10 10 10 10 10 10 10 10 10 11 10
11 11 11 11 11 11 11 11 11 10 10 10 10 10 10 10 10 10 10 10 10 10 10 10 10 10 10 10 10 10 10 10 10 10 10 10 10 10 10 10 10 10 10
11 10 10 10 10 10 10 10 10 10 10 10 10 10 10 10 10 10 9 9 10 10 10 10 10 10 10 10 9 9 9 9 9 9 10 9 10 10 10 10 10 10 10
10 10 10 10 10 10 10 10 10 9 9 9 9 9 9 9 9 9 9 9 9 9 9 10 10 10 9 9 9 9 9 9 9 9 9 9 9 9 9 10 10 10 10
9 9 9 9 9 9 9 9 9 9 9 9 9 9 9 9 9 9 9 9 9 9 9 9 9 9 9 9 9 9 9 9 9 9 9 9 9 9 9 9 9 9 10
Wind_Speed
3 4 4 4 5 5 5 5 5 6 6 7 8 8 8 8 8 8 9 12 13 13 12 12 12 12 12 12 12 12 12 12 11 11 11 10 10 9 8 7 7 7 7
3 3 4 4 4 4 4 4 5 4 5 5 6 7 7 7 7 7 7 9 11 12 12 12 11 11 12 12 12 12 12 12 12 12 11 10 10 10 9 8 7 7 7
3 3 3 3 3 4 4 3 4 4 4 5 5 6 6 6 6 6 7 6 7 10 11 11 11 11 11 11 11 11 11 11 11 11 11 10 10 10 10 9 9 8 8
2 3 2 3 3 3 3 2 2 3 3 3 4 4 4 4 5 5 5 5 6 6 8 10 10 10 10 10 10 10 10 10 10 10 10 10 10 10 10 10 10 9 9
2 3 2 2 3 2 2 2 2 2 3 3 3 3 3 3 3 3 4 4 5 4 5 7 7 8 8 8 8 9 9 9 9 9 10 10 10 10 10 10 10 9 9
2 2 2 2 2 2 2 2 2 2 2 2 2 2 2 2 2 2 2 3 3 4 4 4 4 6 7 7 6 7 7 7 8 8 9 9 9 9 9 9 9 9 8
2 2 2 2 2 2 2 2 2 2 2 2 2 2 2 2 3 2 2 2 3 3 3 3 3 2 4 6 6 5 5 6 6 7 7 7 7 7 8 8 8 9 9
2 2 3 3 3 2 2 2 2 1 1 1 1 1 1 2 2 2 2 1 2 2 2 2 3 2 2 3 5 5 4 4 6 6 6 7 7 7 7 7 7 8 8
2 2 2 3 3 3 2 2 2 2 1 1 1 2 1 0 1 2 1 1 2 1 1 2 2 3 3 3 4 6 5 4 5 5 5 5 5 6 6 6 6 6 7
3 3 3 3 3 2 3 3 3 3 3 2 1 1 2 2 2 1 2 1 1 1 1 1 1 2 2 3 4 6 5 4 3 3 3 3 3 4 4 4 4 5 6
3 3 3 3 3 2 3 3 3 3 3 3 2 1 2 2 3 2 2 2 1 0 1 0 1 1 2 2 3 5 4 4 4 3 3 3 3 3 3 3 4 4 4
2 3 3 3 3 3 3 3 3 4 3 3 3 3 3 3 2 2 3 2 1 1 0 0 0 0 1 1 2 4 3 3 4 4 3 3 2 3 4 4 4 4 4
2 2 3 3 3 3 3 3 3 3 3 3 3 3 3 3 3 3 2 2 2 2 1 1 1 1 1 1 2 3 3 3 3 3 3 3 3 3 4 4 3 3 3
2 2 3 3 3 3 3 3 3 3 3 3 3 3 3 3 3 3 3 2 3 2 2 1 1 1 1 1 3 2 3 4 2 1 1 2 2 2 3 2 2 2 2
2 3 3 3 3 3 4 4 3 4 4 4 4 4 3 3 3 3 3 3 3 3 2 2 1 1 1 1 2 2 2 4 3 2 1 1 1 1 2 1 1 1 1
3 4 4 4 4 4 4 4 4 4 5 4 3 4 4 3 2 2 3 3 3 3 3 1 1 1 2 1 1 1 0 3 3 2 2 3 2 2 2 1 1 1 1
4 5 5 4 4 4 4 4 4 5 5 5 5 5 5 4 3 3 3 3 3 3 3 2 1 2 2 2 1 1 1 1 2 3 3 4 4 4 3 3 3 3 3
4 4 4 4 4 4 4 4 4 5 5 5 5 5 5 4 4 3 3 3 3 4 4 3 2 2 2 2 1 1 1 1 2 2 3 5 5 5 4 4 4 4 4
3 3 3 4 4 4 4 5 5 5 5 5 5 5 6 5 5 4 4 4 4 4 4 4 3 2 2 2 2 2 2 2 2 1 3 4 5 5 5 5 6 6 6
2 2 2 3 4 4 4 4 4 5 5 5 4 5 5 5 5 5 4 5 4 4 4 4 3 3 3 2 3 3 3 3 2 2 2 3 5 6 6 6 6 7 7
2 1 2 2 2 2 2 3 4 5 5 5 5 4 4 3 3 3 4 5 5 5 5 4 4 3 3 3 4 4 4 3 3 3 2 3 4 4 5 7 7 7 8
2 2 2 1 1 1 1 2 4 5 5 5 5 5 4 5 4 4 4 4 5 6 6 6 5 5 5 5 4 4 4 4 4 3 3 3 3 3 4 4 6 7 8
2 2 2 2 2 1 1 1 3 4 5 5 5 4 4 4 5 6 6 7 7 7 7 7 7 7 6 5 5 6 5 5 5 3 3 4 4 5 4 4 5 7 8
2 3 2 2 2 1 1 2 4 5 4 5 5 5 5 5 4 5 6 6 7 8 8 8 8 7 6 6 6 6 6 6 6 3 4 5 4 5 4 5 6 7 8
3 3 3 3 3 2 1 1 4 4 4 5 5 5 5 6 3 4 6 6 6 6 7 8 8 7 5 4 5 5 5 5 5 5 4 4 5 4 4 4 5 7 9
3 3 2 3 3 3 1 1 4 4 4 4 4 4 3 4 3 4 6 7 8 7 6 7 8 8 8 7 7 8 7 6 6 5 4 4 5 3 4 4 3 4 6
Wind_Direction
95 93 98 96 90 90 95 90 81 75 73 69 66 64 64 65 64 68 72 65 58 59 64 69 71 68 68 68 69 73 71 71 70 68 67 67 66 67 67 72 75 76 79
112 103 99 99 94 92 89 91 89 84 77 74 69 66 64 65 65 69 72 76 70 63 63 67 71 70 70 67 67 69 72 71 70 68 67 67 66 64 64 69 73 76 77
116 116 109 110 109 110 105 93 91 87 85 84 79 73 68 62 65 69 70 69 76 76 68 63 65 69 71 72 71 71 71 72 71 69 68 68 69 67 66 71 75 79 79
130 116 119 120 120 120 117 109 103 98 97 88 80 75 74 69 62 62 69 71 69 70 77 68 61 65 69 70 72 71 70 71 72 69 68 69 70 70 71 73 77 79 78
154 142 132 131 127 131 133 126 113 108 104 96 89 79 69 68 67 70 69 67 73 75 76 89 80 67 67 67 68 69 72 71 71 70 69 70 71 72 72 73 75 78 79
158 148 150 146 138 146 139 138 121 118 109 113 100 83 77 79 74 63 56 64 63 69 70 74 87 89 78 68 66 72 75 72 71 70 69 69 70 71 70 72 73 75 79
170 157 167 161 160 155 158 157 140 135 137 142 137 116 109 94 78 78 63 60 75 67 69 69 65 71 98 95 73 69 73 74 74 73 71 70 69 71 73 74 75 78 79
171 172 180 171 160 156 173 172 166 187 157 206 246 215 172 152 112 89 86 72 72 77 59 59 67 67 59 83 82 69 59 72 73 71 70 66 65 67 73 75 76 80 82
171 176 180 181 176 178 178 190 197 212 216 211 284 295 278 284 136 138 97 95 75 64 58 58 58 67 72 78 85 78 62 67 73 71 67 63 64 69 75 77 81 82 84
177 181 184 190 188 193 191 199 206 219 226 227 222 296 308 315 263 178 161 129 93 53 33 53 58 70 75 79 84 76 65 59 77 77 74 71 69 78 78 76 85 86 84
183 185 198 199 196 198 202 208 218 223 227 240 244 246 256 253 260 253 221 187 161 93 39 7 49 82 87 91 93 80 67 62 64 67 67 80 74 78 85 94 96 91 87
187 188 199 201 202 202 206 207 215 219 232 232 242 244 249 255 247 246 251 226 214 202 146 321 257 130 129 134 102 85 75 76 72 67 66 75 78 74 81 89 90 90 88
198 195 199 204 205 206 209 210 215 224 228 230 238 249 255 264 263 257 249 247 244 229 206 210 195 163 158 168 127 118 120 102 88 81 78 75 78 81 77 76 80 84 85
213 209 210 209 211 211 214 216 227 228 235 233 237 239 249 257 249 244 246 243 242 233 225 218 173 163 150 159 109 161 132 127 121 114 108 101 99 95 91 88 77 82 84
226 219 214 214 210 211 218 221 228 233 237 239 239 235 243 250 237 241 234 241 253 251 242 216 205 176 152 131 113 195 159 128 155 169 185 176 157 135 122 99 91 89 99
229 229 224 231 223 220 222 225 232 235 236 234 240 242 240 238 226 233 246 248 248 254 263 255 222 196 169 165 125 270 137 125 167 185 208 210 199 182 173 173 181 168 160
232 232 228 232 231 229 227 224 231 233 236 237 233 234 234 232 222 223 232 241 247 241 244 258 224 203 191 225 160 248 214 210 182 196 218 207 200 194 198 204 202 199 201
235 230 229 228 227 230 228 230 234 236 236 238 237 233 231 220 220 223 225 231 235 240 237 241 234 219 229 231 230 245 249 251 270 159 185 193 197 202 209 213 213 211 206
234 226 221 221 222 226 222 223 226 231 237 240 237 235 232 219 218 219 221 230 231 230 231 234 241 219 236 230 240 244 242 239 260 190 181 195 201 207 215 219 219 218 218
226 224 219 220 222 225 225 228 230 233 234 235 237 237 235 225 224 224 222 229 228 223 219 227 228 221 225 235 237 242 244 235 244 243 207 205 202 207 217 221 222 222 224
225 235 229 220 214 226 243 254 242 239 236 233 231 232 234 237 256 243 234 230 225 224 220 223 227 231 232 224 237 242 246 246 241 245 239 226 212 214 212 214 217 221 224
214 219 218 225 219 229 44 308 269 242 237 233 230 229 232 226 221 224 238 246 242 230 226 224 228 231 242 239 238 243 244 249 255 231 239 247 229 234 227 220 200 205 216
214 220 224 224 237 230 113 248 267 258 242 237 237 235 233 233 236 235 223 223 233 239 244 242 237 236 242 240 240 241 242 245 253 243 234 252 237 241 236 229 193 202 213
225 230 235 241 244 237 109 244 256 250 254 249 244 244 241 242 238 250 245 236 235 233 234 239 244 249 252 249 243 246 250 252 256 236 224 254 246 246 241 231 199 210 218
241 243 242 245 251 239 164 261 260 246 249 254 252 248 250 246 232 248 247 243 241 240 223 230 249 258 264 255 243 234 239 239 247 241 219 246 261 256 246 238 216 208 219
238 242 243 246 250 263 112 261 275 249 251 254 254 250 245 254 254 236 242 244 244 246 244 228 232 236 239 227 216 228 233 237 245 250 224 229 255 252 251 237 229 222 223
Height
1541 1541 1541 1541 1541 1541 1541 1541 1541 1541 1541 1540 1540 1540 1539 1539 1538 1538 1537 1536 1535 1534 1534 1533 1532 1531 1530 1530 1529 1528 1528 1527 1527 1527 1526 1526 1526 1526 1526 1525 1525 1525 1525
1541 1542 1542 1542 1542 1542 1542 1542 1542 1542 1542 1541 1541 1541 1541 1540 1540 1540 1539 1538 1537 1536 1536 1535 1534 1533 1532 1531 1531 1530 1529 1529 1529 1528 1528 1528 1527 1527 1527 1526 1526 1525 1525
1542 1542 1542 1543 1543 1543 1543 1543 1544 1543 1543 1543 1543 1542 1542 1542 1542 1541 1541 1540 1540 1539 1538 1537 1536 1535 1534 1533 1533 1532 1531 1531 1530 1530 1530 1529 1529 1528 1527 1527 1526 1526 1525
1542 1542 1543 1543 1543 1543 1544 1544 1544 1544 1544 1544 1544 1544 1543 1543 1543 1543 1542 1542 1541 1540 1539 1538 1538 1537 1536 1535 1534 1534 1533 1533 1532 1531 1531 1530 1530 1529 1529 1528 1528 1527 1526
1542 1543 1543 1543 1544 1544 1544 1544 1544 1545 1545 1544 1544 1544 1544 1544 1543 1544 1544 1543 1543 1542 1541 1540 1539 1538 1537 1536 1536 1535 1534 1534 1534 1533 1532 1532 1531 1531 1530 1530 1529 1528 1528
1542 1542 1542 1543 1544 1544 1544 1544 1544 1544 1544 1544 1545 1544 1544 1544 1544 1544 1544 1544 1543 1543 1542 1541 1540 1539 1538 1538 1537 1537 1536 1535 1535 1534 1534 1533 1533 1532 1532 1531 1530 1530 1529
1541 1541 1542 1543 1543 1543 1544 1544 1544 1544 1544 1544 1545 1545 1545 1544 1544 1544 1543 1543 1543 1542 1542 1542 1541 1540 1540 1538 1538 1537 1537 1536 1536 1535 1534 1534 1534 1533 1533 1532 1532 1531 1531
1540 1541 1542 1542 1542 1542 1543 1543 1543 1544 1544 1544 1545 1545 1545 1546 1544 1544 1543 1543 1543 1542 1542 1542 1541 1540 1540 1539 1538 1538 1538 1537 1536 1536 1535 1535 1534 1534 1534 1533 1533 1532 1532
1539 1540 1541 1541 1541 1542 1542 1542 1543 1543 1543 1544 1544 1545 1544 1544 1544 1544 1543 1543 1542 1542 1542 1541 1541 1541 1540 1540 1539 1538 1538 1537 1536 1536 1536 1535 1535 1534 1534 1534 1533 1533 1533
1538 1538 1539 1540 1540 1541 1541 1542 1542 1542 1542 1543 1543 1543 1544 1543 1544 1543 1543 1543 1542 1541 1541 1541 1541 1540 1540 1539 1538 1538 1537 1537 1536 1536 1536 1535 1535 1534 1534 1534 1534 1533 1533
1536 1537 1538 1538 1539 1539 1540 1540 1540 1541 1541 1542 1542 1542 1542 1542 1542 1542 1542 1542 1542 1541 1540 1540 1540 1540 1539 1539 1538 1537 1537 1537 1536 1536 1535 1535 1535 1534 1534 1534 1534 1534 1534
1535 1535 1536 1536 1537 1538 1538 1539 1539 1539 1540 1540 1540 1540 1541 1541 1541 1541 1541 1540 1540 1540 1539 1539 1539 1538 1538 1537 1537 1536 1536 1536 1536 1535 1535 1535 1534 1534 1534 1534 1534 1534 1534
1533 1534 1534 1535 1536 1536 1537 1537 1538 1538 1538 1538 1538 1539 1539 1539 1539 1539 1539 1539 1539 1539 1538 1538 1538 1537 1537 1536 1536 1535 1535 1535 1535 1534 1534 1534 1533 1533 1533 1533 1533 1534 1533
1532 1532 1533 1533 1534 1534 1535 1535 1536 1536 1536 1536 1536 1536 1536 1537 1537 1537 1537 1538 1537 1537 1537 1537 1536 1536 1535 1535 1534 1534 1534 1533 1533 1533 1533 1532 1532 1533 1533 1533 1533 1533 1533
1530 1531 1531 1532 1532 1532 1533 1533 1533 1533 1534 1534 1534 1534 1534 1535 1535 1535 1535 1536 1536 1536 1536 1536 1535 1534 1534 1533 1533 1533 1533 1532 1531 1531 1531 1531 1531 1531 1532 1532 1532 1532 1532
1528 1528 1529 1529 1530 1530 1530 1531 1531 1531 1531 1531 1532 1532 1532 1532 1532 1532 1533 1533 1533 1534 1534 1534 1533 1533 1532 1532 1531 1531 1531 1530 1529 1528 1528 1528 1529 1530 1530 1531 1531 1531 1531
1526 1526 1526 1527 1527 1528 1528 1528 1528 1528 1529 1529 1529 1530 1530 1530 1530 1530 1530 1531 1531 1531 1532 1532 1532 1531 1531 1530 1530 1529 1529 1528 1527 1525 1523 1524 1526 1527 1529 1529 1530 1530 1530
1523 1523 1523 1524 1524 1524 1525 1525 1525 1525 1526 1526 1526 1527 1527 1527 1527 1528 1528 1528 1529 1529 1529 1529 1530 1529 1529 1529 1528 1527 1527 1526 1525 1523 1521 1522 1524 1526 1527 1527 1528 1528 1528
1520 1520 1520 1520 1521 1521 1522 1522 1522 1522 1523 1523 1523 1523 1524 1524 1525 1525 1525 1526 1526 1526 1527 1527 1527 1527 1527 1527 1526 1526 1526 1525 1524 1523 1522 1522 1523 1524 1525 1525 1526 1526 1526
1518 1517 1517 1518 1518 1518 1519 1519 1519 1519 1519 1520 1520 1520 1521 1521 1522 1522 1522 1523 1523 1524 1524 1524 1525 1525 1525 1525 1525 1524 1524 1524 1523 1522 1522 1522 1522 1522 1523 1523 1523 1524 1524
1515 1515 1515 1515 1515 1515 1515 1516 1516 1516 1516 1517 1517 1517 1517 1517 1518 1519 1519 1520 1520 1521 1521 1521 1522 1522 1522 1522 1522 1522 1522 1522 1521 1521 1520 1520 1520 1520 1520 1520 1520 1521 1521
1512 1512 1512 1512 1512 1512 1511 1512 1513 1513 1513 1513 1513 1514 1514 1514 1514 1515 1515 1516 1517 1517 1518 1518 1518 1519 1519 1519 1519 1519 1520 1519 1519 1519 1518 1518 1518 1517 1517 1518 1517 1518 1518
1509 1510 1510 1510 1509 1509 1509 1509 1509 1510 1510 1510 1510 1510 1510 1510 1510 1511 1511 1512 1512 1513 1514 1515 1515 1515 1516 1516 1516 1517 1516 1516 1516 1516 1516 1515 1515 1515 1515 1514 1514 1514 1515
1507 1507 1507 1507 1506 1506 1506 1505 1506 1506 1506 1506 1506 1507 1507 1507 1507 1507 1508 1508 1508 1509 1509 1510 1511 1511 1512 1513 1513 1513 1513 1513 1514 1513 1512 1513 1512 1512 1512 1511 1511 1511 1511
1504 1504 1504 1503 1503 1503 1502 1502 1502 1502 1502 1502 1502 1502 1503 1503 1503 1504 1504 1504 1505 1505 1505 1505 1506 1506 1507 1508 1508 1509 1509 1510 1510 1510 1509 1509 1509 1509 1508 1508 1507 1507 1507
1500 1501 1500 1500 1500 1500 1499 1499 1499 1499 1499 1499 1498 1498 1498 1499 1499 1499 1500 1500 1500 1500 1501 1501 1501 1502 1502 1503 1503 1504 1505 1505 1506 1506 1505 1505 1505 1505 1505 1505 1504 1504 1503